Pagina principale
METAR-TAF:

METAR-TAF

Aeroporti :

Plymouth Municipal Airport

Plymouth, Massachusetts, Stati Uniti

latitudine: 41-54-31N, longitudine: 070-43-41W, altezza: 45 m

Osservazione

Il bollettino è stato emesso 31 minuti fa, alle 15:52 UTC
Vento 10 kt da nord/nord-est
Temperature 7°C
Umidità 100%
Pressione 1009 hPa
Visibilità: 11.3 km
Cielo coperto ad un'altezza di 400 ft
pioggia debole

METAR: KPYM 201552Z AUTO 02010KT 7SM -RA OVC004 07/07 A2981 RMK AO2 SLP095 P0004 T00720067

Ora: 11:23 (16:23 UTC)


TAF: mancante

Osservazioni e previsioni meteorologiche di più di 4000 aeroporti (messaggi METAR e TAF).

Le stazioni disponibili sono rappresentate dai dischi gialli e rossi sulla carta.

Puntare il mouse per vedere il nome della stazione.

Clicca sopra per visualizzare le osservazioni e previsioni meteorologiche.

Per cambiare la mappa : fare clic sui pulsanti verdi con una croce nera per ingrandire, il pulsante verde con un trattino per diminuire, o sulla freccia verde per le mappe adiacenti.


METAR-TAF: